Centerville, IA

7:27 AM CDT on June 26, 2017 (GMT -0500)
Centerville Municipal

Weather History for KTVK - November, 2011

Change the Weather History Date:

Sunday, November 6, 2011

  Actual Average Record
Temperature  
Mean Temperature 56 °F -  
Max Temperature 64 °F 50 °F 74 °F (1980)
Min Temperature 48 °F 34 °F 13 °F (1959)
Degree Days  
Heating Degree Days 9    
Growing Degree Days 6 (Base 50)    
Moisture  
Dew Point 44 °F    
Average Humidity 68    
Maximum Humidity 82    
Minimum Humidity 52    
Precipitation  
Precipitation 0.00 in - - ()
Sea Level Pressure  
Sea Level Pressure 29.92 in    
Wind  
Wind Speed 16 mph (SSW)    
Max Wind Speed 26 mph    
Max Gust Speed 33 mph    
Visibility 10 miles    
Events      
Averages and records for this station are not official NWS values.
T = Trace of Precipitation, MM = Missing Value Source: NWS Daily Summary

Daily Weather History Graph

Daily Weather History Graph

Search for Another Location

Airport or City:

Trip Planner

Search our weather history database for the weather conditions in past years. The results will help you decide how hot, cold, wet, or windy it might be!

Date:

Astronomy

Nov. 06, 2011 Rise Set
Actual Time 6:47 AM CST 5:02 PM CST
Civil Twilight 6:18 AM CST 5:31 PM CST
Nautical Twilight 5:46 AM CST 6:03 PM CST
Astronomical Twilight 5:14 AM CST 6:35 PM CST
Moon 2:47 PM CST (11/6) 2:53 AM CST (11/6)
Length of Visible Light 11h 12m
Length of Day
10h 15m
Waxing Gibbous, 86% of the Moon is Illuminated
Nov 6
Waxing Gibbous
Nov 10
Full
Nov 18
Last Quarter
Nov 25
New
Dec 2
First Quarter

Hourly Weather History & Observations

Time (CST) Temp. Dew Point Humidity Pressure Visibility Wind Dir Wind Speed Gust Speed Precip Events Conditions
12:15 AM 50.0 °F 42.8 °F 76% 29.87 in 10.0 mi South 17.3 mph 27.6 mph N/A   Partly Cloudy
12:35 AM 50.0 °F 42.8 °F 76% 29.87 in 10.0 mi South 13.8 mph 21.9 mph N/A   Clear
12:55 AM 50.0 °F 42.8 °F 76% 29.87 in 10.0 mi SSE 17.3 mph 24.2 mph N/A   Clear
1:15 AM 50.0 °F 42.8 °F 76% 29.86 in 10.0 mi SSE 17.3 mph 25.3 mph N/A   Clear
1:35 AM 50.0 °F 42.8 °F 76% 29.85 in 10.0 mi SSE 17.3 mph 24.2 mph N/A   Clear
1:55 AM 50.0 °F 44.6 °F 82% 29.85 in 10.0 mi SSE 15.0 mph 25.3 mph N/A   Clear
1:15 AM 50.0 °F 44.6 °F 82% 29.85 in 10.0 mi South 19.6 mph - N/A   Clear
1:35 AM 50.0 °F 44.6 °F 82% 29.84 in 10.0 mi South 18.4 mph 28.8 mph N/A   Clear
1:55 AM 50.0 °F 44.6 °F 82% 29.84 in 10.0 mi South 17.3 mph 33.4 mph N/A   Clear
2:15 AM 50.0 °F 44.6 °F 82% 29.84 in 10.0 mi South 18.4 mph 29.9 mph N/A   Clear
2:35 AM 50.0 °F 44.6 °F 82% 29.83 in 10.0 mi South 20.7 mph 25.3 mph N/A   Clear
2:55 AM 50.0 °F 44.6 °F 82% 29.83 in 10.0 mi South 19.6 mph 27.6 mph N/A   Clear
3:15 AM 50.0 °F 44.6 °F 82% 29.82 in 10.0 mi South 20.7 mph 31.1 mph N/A   Clear
3:35 AM 51.8 °F 44.6 °F 76% 29.82 in 10.0 mi South 17.3 mph 28.8 mph N/A   Clear
3:55 AM 50.0 °F 44.6 °F 82% 29.82 in 10.0 mi South 16.1 mph 26.5 mph N/A   Clear
4:15 AM 51.8 °F 44.6 °F 76% 29.82 in 10.0 mi South 17.3 mph 24.2 mph N/A   Clear
4:55 AM 51.8 °F 44.6 °F 76% 29.82 in 10.0 mi South 18.4 mph 24.2 mph N/A   Clear
5:15 AM 51.8 °F 44.6 °F 76% 29.83 in 10.0 mi South 17.3 mph 24.2 mph N/A   Clear
5:35 AM 51.8 °F 44.6 °F 76% 29.83 in 10.0 mi South 19.6 mph 26.5 mph N/A   Clear
5:55 AM 51.8 °F 44.6 °F 76% 29.83 in 10.0 mi South 16.1 mph 23.0 mph N/A   Clear
6:35 AM 51.8 °F 44.6 °F 76% 29.83 in 10.0 mi South 18.4 mph 21.9 mph N/A   Clear
6:55 AM 51.8 °F 44.6 °F 76% 29.84 in 10.0 mi South 15.0 mph 25.3 mph N/A   Clear
7:15 AM 53.6 °F 46.4 °F 77% 29.83 in 10.0 mi South 25.3 mph 32.2 mph N/A   Clear
7:35 AM 55.4 °F 46.4 °F 72% 29.84 in 10.0 mi South 25.3 mph 31.1 mph N/A   Clear
7:55 AM 55.4 °F 46.4 °F 72% 29.85 in 10.0 mi South 20.7 mph 27.6 mph N/A   Clear
8:15 AM 55.4 °F 46.4 °F 72% 29.86 in 10.0 mi South 21.9 mph 29.9 mph N/A   Clear
8:35 AM 57.2 °F 48.2 °F 72% 29.86 in 10.0 mi South 25.3 mph 33.4 mph N/A   Partly Cloudy
9:15 AM 57.2 °F 48.2 °F 72% 29.88 in 10.0 mi SSW 24.2 mph 31.1 mph N/A   Mostly Cloudy
9:35 AM 59.0 °F 48.2 °F 67% 29.88 in 10.0 mi SSW 24.2 mph 28.8 mph N/A   Mostly Cloudy
9:55 AM 59.0 °F 48.2 °F 67% 29.89 in 10.0 mi SSW 26.5 mph 33.4 mph N/A   Mostly Cloudy
10:15 AM 59.0 °F 48.2 °F 67% 29.90 in 10.0 mi SSW 26.5 mph 33.4 mph N/A   Mostly Cloudy
10:35 AM 59.0 °F 48.2 °F 67% 29.91 in 10.0 mi SSW 23.0 mph 32.2 mph N/A   Mostly Cloudy
10:55 AM 59.0 °F 48.2 °F 67% 29.92 in 10.0 mi SW 25.3 mph - N/A   Mostly Cloudy
11:15 AM 59.0 °F 48.2 °F 67% 29.92 in 10.0 mi SW 25.3 mph 31.1 mph N/A   Mostly Cloudy
11:55 AM 60.8 °F 46.4 °F 59% 29.92 in 10.0 mi SW 18.4 mph 26.5 mph N/A   Partly Cloudy
12:15 PM 62.6 °F 46.4 °F 55% 29.92 in 10.0 mi SW 21.9 mph - N/A   Partly Cloudy
12:35 PM 62.6 °F 46.4 °F 55% 29.92 in 10.0 mi SW 18.4 mph 25.3 mph N/A   Partly Cloudy
1:15 PM 62.6 °F 46.4 °F 55% 29.93 in 10.0 mi SW 19.6 mph 23.0 mph N/A   Scattered Clouds
1:35 PM 62.6 °F 46.4 °F 55% 29.93 in 10.0 mi SW 17.3 mph 24.2 mph N/A   Scattered Clouds
1:55 PM 62.6 °F 46.4 °F 55% 29.92 in 10.0 mi SW 15.0 mph - N/A   Partly Cloudy
2:15 PM 64.4 °F 46.4 °F 52% 29.93 in 10.0 mi SW 17.3 mph 25.3 mph N/A   Clear
2:35 PM 62.6 °F 44.6 °F 52% 29.93 in 10.0 mi WSW 17.3 mph - N/A   Clear
3:15 PM 62.6 °F 44.6 °F 52% 29.94 in 10.0 mi SW 11.5 mph - N/A   Partly Cloudy
3:35 PM 62.6 °F 44.6 °F 52% 29.95 in 10.0 mi WSW 11.5 mph - N/A   Clear
3:55 PM 62.6 °F 44.6 °F 52% 29.96 in 10.0 mi WSW 10.4 mph - N/A   Scattered Clouds
4:15 PM 62.6 °F 44.6 °F 52% 29.97 in 10.0 mi SW 6.9 mph - N/A   Mostly Cloudy
4:35 PM 59.0 °F 44.6 °F 59% 29.98 in 10.0 mi WSW 5.8 mph - N/A   Partly Cloudy
4:55 PM 55.4 °F 42.8 °F 63% 29.98 in 10.0 mi West 6.9 mph - N/A   Clear
5:35 PM 51.8 °F 39.2 °F 62% 30.00 in 10.0 mi WNW 4.6 mph - N/A   Clear
5:55 PM 51.8 °F 39.2 °F 62% 30.01 in 10.0 mi WNW 4.6 mph - N/A   Clear
6:15 PM 50.0 °F 37.4 °F 62% 30.02 in 10.0 mi Calm Calm - N/A   Clear
6:35 PM 50.0 °F 37.4 °F 62% 30.02 in 10.0 mi Calm Calm - N/A   Clear
6:55 PM 50.0 °F 37.4 °F 62% 30.03 in 10.0 mi Calm Calm - N/A   Clear
7:15 PM 50.0 °F 37.4 °F 62% 30.03 in 10.0 mi NNW 3.5 mph - N/A   Clear
7:35 PM 50.0 °F 35.6 °F 58% 30.04 in 10.0 mi NW 3.5 mph - N/A   Scattered Clouds
7:55 PM 48.2 °F 37.4 °F 66% 30.04 in 10.0 mi Calm Calm - N/A   Mostly Cloudy
8:15 PM 48.2 °F 35.6 °F 62% 30.06 in 10.0 mi Calm Calm - N/A   Mostly Cloudy
8:35 PM 48.2 °F 39.2 °F 71% 30.06 in 10.0 mi Calm Calm - N/A   Mostly Cloudy
8:55 PM 48.2 °F 41.0 °F 76% 30.08 in 10.0 mi Calm Calm - N/A   Mostly Cloudy
9:15 PM 48.2 °F 37.4 °F 66% 30.08 in 10.0 mi Calm Calm - N/A   Mostly Cloudy
9:35 PM 48.2 °F 39.2 °F 71% 30.09 in 10.0 mi Calm Calm - N/A   Scattered Clouds
10:15 PM 48.2 °F 37.4 °F 66% 30.09 in 10.0 mi Calm Calm - N/A   Mostly Cloudy